Location: Puketoi
(40.5833°S, 176.0167°E)
Time: 13:39:56
(UTC+00:00)

Cosmos 1302 Rocket - Pass Details

Date: 08 February 2023
Orbit: 755 x 776 km, 74.0° (Epoch: 23 March)

Event Time Altitude Azimuth Distance (km) Brightness Sun altitude
Rises 15:31:12 0° 204° (SSW) 3,256 7.5 -20.4°
Reaches altitude 10° 15:33:37 10° 207° (SSW) 2,320 6.7 -20.1°
Maximum altitude 15:38:46 57° 285° (WNW) 895 4.0 -19.3°
Enters shadow 15:41:34 26° 353° (N) 1,463 5.0 -18.9°
